| time (UTC) | temp F | wind direction | speed MPH | gust MPH | rain 1hr in | rain 24hr in | rain mn in | humidity % | barometer mb |
| 20260509223331 | 62 | 239 | 2.0 | 6.0 | 0.00 | 0.00 | 0.00 | 78 | 1028.3 |
| 20260509222334 | 61 | 245 | 1.0 | 5.0 | 0.00 | 0.00 | 0.00 | 80 | 1028.3 |
| 20260509221333 | 60 | 251 | 1.0 | 8.0 | 0.00 | 0.00 | 0.00 | 81 | 1028.0 |
| 20260509220332 | 59 | 273 | 3.0 | 9.0 | 0.00 | 0.00 | 0.00 | 84 | 1027.9 |
| 20260509215331 | 58 | 246 | 3.0 | 5.0 | 0.00 | 0.00 | 0.00 | 87 | 1027.7 |
| 20260509214330 | 57 | 246 | 3.0 | 5.0 | 0.00 | 0.00 | 0.00 | 88 | 1027.5 |
| 20260509213330 | 56 | 253 | 3.0 | 6.0 | 0.00 | 0.00 | 0.00 | 89 | 1027.6 |
| 20260509212331 | 55 | 173 | 1.0 | 6.0 | 0.00 | 0.00 | 0.00 | 89 | 1027.5 |
| 20260509210332 | 54 | 249 | 2.0 | 5.0 | 0.00 | 0.00 | 0.00 | 90 | 1027.3 |
| 20260509205331 | 54 | 251 | 3.0 | 8.0 | 0.00 | 0.00 | 0.00 | 90 | 1026.9 |
| 20260509204329 | 54 | 252 | 3.0 | 5.0 | 0.00 | 0.00 | 0.00 | 89 | 1026.8 |
| 20260509202329 | 54 | 255 | 2.0 | 4.0 | 0.00 | 0.00 | 0.00 | 89 | 1026.6 |
| 20260509201334 | 54 | 256 | 1.0 | 5.0 | 0.00 | 0.00 | 0.00 | 89 | 1026.5 |
| 20260509200328 | 54 | 252 | 2.0 | 5.0 | 0.00 | 0.00 | 0.00 | 89 | 1026.5 |
| 20260509194328 | 54 | 242 | 2.0 | 5.0 | 0.00 | 0.00 | 0.00 | 89 | 1026.5 |
| 20260509192328 | 54 | 238 | 1.0 | 6.0 | 0.00 | 0.00 | 0.00 | 89 | 1026.2 |
| 20260509191328 | 55 | 241 | 1.0 | 2.0 | 0.00 | 0.00 | 0.00 | 89 | 1026.1 |
| 20260509185327 | 55 | 241 | 4.0 | 8.0 | 0.00 | 0.00 | 0.00 | 89 | 1025.9 |
| 20260509184328 | 55 | 225 | 2.0 | 5.0 | 0.00 | 0.00 | 0.00 | 90 | 1025.8 |
| 20260509183324 | 55 | 224 | 3.0 | 5.0 | 0.00 | 0.00 | 0.00 | 90 | 1025.7 |
| 20260509182325 | 55 | 218 | 2.0 | 6.0 | 0.00 | 0.00 | 0.00 | 90 | 1025.9 |
| 20260509181324 | 55 | 215 | 4.0 | 5.0 | 0.00 | 0.00 | 0.00 | 90 | 1025.7 |
| 20260509180323 | 55 | 196 | 3.0 | 4.0 | 0.00 | 0.00 | 0.00 | 90 | 1026.0 |
| 20260509175326 | 54 | 194 | 2.0 | 4.0 | 0.00 | 0.00 | 0.00 | 90 | 1025.7 |
| 20260509174325 | 54 | 194 | 2.0 | 2.0 | 0.00 | 0.00 | 0.00 | 90 | 1025.6 |
| 20260509173325 | 54 | 194 | 1.0 | 4.0 | 0.00 | 0.00 | 0.00 | 90 | 1025.6 |
| 20260509172323 | 54 | 194 | 2.0 | 5.0 | 0.00 | 0.00 | 0.00 | 90 | 1025.5 |
| 20260509170323 | 54 | 193 | 1.0 | 4.0 | 0.00 | 0.00 | 0.00 | 90 | 1025.7 |
| 20260509165324 | 54 | 193 | 2.0 | 2.0 | 0.00 | 0.00 | 0.00 | 90 | 1025.6 |
| 20260509163324 | 55 | 193 | 1.0 | 2.0 | 0.00 | 0.00 | 0.00 | 89 | 1025.7 |
| 20260509162323 | 55 | 193 | 1.0 | 2.0 | 0.00 | 0.00 | 0.00 | 89 | 1025.6 |
| 20260509160323 | 55 | 193 | 2.0 | 4.0 | 0.00 | 0.00 | 0.00 | 89 | 1025.8 |
| 20260509155322 | 55 | 188 | 2.0 | 4.0 | 0.00 | 0.00 | 0.00 | 89 | 1025.7 |
| 20260509153320 | 55 | 188 | 2.0 | 2.0 | 0.00 | 0.00 | 0.00 | 89 | 1025.8 |
| 20260509152320 | 55 | 188 | 1.0 | 2.0 | 0.00 | 0.00 | 0.00 | 90 | 1025.8 |
| 20260509151320 | 55 | 188 | 2.0 | 4.0 | 0.00 | 0.00 | 0.00 | 90 | 1025.9 |
| 20260509150319 | 55 | 188 | 0.0 | 2.0 | 0.00 | 0.00 | 0.00 | 90 | 1026.1 |
| 20260509145319 | 55 | 188 | 0.0 | 2.0 | 0.00 | 0.00 | 0.00 | 90 | 1025.9 |
| 20260509144319 | 55 | 188 | 0.0 | 2.0 | 0.00 | 0.00 | 0.00 | 90 | 1025.9 |
| 20260509143319 | 55 | 188 | 2.0 | 4.0 | 0.00 | 0.00 | 0.00 | 89 | 1025.9 |
| 20260509140318 | 55 | 188 | 0.0 | 1.0 | 0.00 | 0.00 | 0.00 | 89 | 1026.2 |
| 20260509135318 | 56 | 188 | 1.0 | 1.0 | 0.00 | 0.00 | 0.00 | 89 | 1025.9 |
| 20260509134318 | 56 | 188 | 1.0 | 2.0 | 0.00 | 0.00 | 0.00 | 89 | 1025.9 |
| 20260509133319 | 56 | 188 | 1.0 | 2.0 | 0.00 | 0.00 | 0.00 | 89 | 1025.9 |
| 20260509132318 | 56 | 188 | 1.0 | 4.0 | 0.00 | 0.00 | 0.00 | 89 | 1026.0 |
| 20260509131319 | 56 | 187 | 1.0 | 2.0 | 0.00 | 0.00 | 0.00 | 89 | 1026.1 |
| 20260509130317 | 56 | 187 | 0.0 | 1.0 | 0.00 | 0.00 | 0.00 | 88 | 1026.3 |
| 20260509125318 | 57 | 187 | 0.0 | 2.0 | 0.00 | 0.00 | 0.00 | 88 | 1026.0 |
| 20260509124318 | 57 | 187 | 2.0 | 2.0 | 0.00 | 0.00 | 0.00 | 87 | 1025.9 |
| 20260509122317 | 57 | 188 | 0.0 | 1.0 | 0.00 | 0.00 | 0.00 | 86 | 1026.1 |
| 20260509121317 | 58 | 187 | 0.0 | 2.0 | 0.00 | 0.00 | 0.00 | 86 | 1026.0 |
| 20260509120316 | 58 | 187 | 2.0 | 4.0 | 0.00 | 0.00 | 0.00 | 86 | 1026.2 |
| 20260509115318 | 58 | 187 | 1.0 | 4.0 | 0.00 | 0.00 | 0.00 | 87 | 1026.2 |
| 20260509114316 | 58 | 171 | 1.0 | 2.0 | 0.00 | 0.00 | 0.00 | 87 | 1026.2 |
| 20260509113315 | 58 | 165 | 0.0 | 0.0 | 0.00 | 0.00 | 0.00 | 87 | 1026.2 |
| 20260509112316 | 58 | 165 | 0.0 | 0.0 | 0.00 | 0.00 | 0.00 | 86 | 1026.1 |
| 20260509111315 | 59 | 165 | 0.0 | 0.0 | 0.00 | 0.00 | 0.00 | 86 | 1026.2 |
| 20260509110327 | 59 | 165 | 0.0 | 0.0 | 0.00 | 0.00 | 0.00 | 85 | 1026.2 |
| 20260509105314 | 59 | 165 | 0.0 | 0.0 | 0.00 | 0.00 | 0.00 | 85 | 1026.1 |
| 20260509104313 | 60 | 165 | 0.0 | 0.0 | 0.00 | 0.00 | 0.00 | 85 | 1026.0 |
| 20260509103314 | 60 | 165 | 0.0 | 0.0 | 0.00 | 0.00 | 0.00 | 84 | 1025.9 |
| 20260509102316 | 60 | 165 | 0.0 | 0.0 | 0.00 | 0.00 | 0.00 | 82 | 1025.8 |
| 20260509101314 | 61 | 165 | 0.0 | 0.0 | 0.00 | 0.00 | 0.00 | 81 | 1025.8 |
| 20260509095313 | 62 | 165 | 0.0 | 1.0 | 0.00 | 0.00 | 0.00 | 79 | 1025.9 |
| 20260509094313 | 62 | 165 | 1.0 | 1.0 | 0.00 | 0.00 | 0.00 | 77 | 1025.7 |
| 20260509093312 | 62 | 165 | 0.0 | 1.0 | 0.00 | 0.00 | 0.00 | 74 | 1025.5 |
| 20260509092314 | 63 | 165 | 0.0 | 0.0 | 0.00 | 0.00 | 0.00 | 72 | 1025.5 |
| 20260509091314 | 64 | 165 | 0.0 | 0.0 | 0.00 | 0.00 | 0.00 | 70 | 1025.3 |
| 20260509090312 | 64 | 165 | 0.0 | 1.0 | 0.00 | 0.00 | 0.00 | 69 | 1025.3 |
| 20260509085313 | 65 | 165 | 0.0 | 0.0 | 0.00 | 0.00 | 0.00 | 68 | 1025.1 |
| 20260509084311 | 65 | 165 | 0.0 | 1.0 | 0.00 | 0.00 | 0.00 | 68 | 1024.9 |
| 20260509083311 | 65 | 165 | 1.0 | 1.0 | 0.00 | 0.00 | 0.00 | 67 | 1024.9 |
| 20260509082312 | 65 | 165 | 0.0 | 1.0 | 0.00 | 0.00 | 0.00 | 66 | 1024.7 |
| 20260509081310 | 66 | 165 | 1.0 | 2.0 | 0.00 | 0.00 | 0.00 | 65 | 1024.5 |
| 20260509080309 | 67 | 165 | 0.0 | 1.0 | 0.00 | 0.00 | 0.00 | 63 | 1024.6 |
| 20260509075310 | 67 | 165 | 0.0 | 1.0 | 0.00 | 0.00 | 0.00 | 61 | 1024.4 |
| 20260509074310 | 68 | 165 | 0.0 | 1.0 | 0.00 | 0.00 | 0.00 | 59 | 1024.3 |
| 20260509073310 | 69 | 165 | 0.0 | 1.0 | 0.00 | 0.00 | 0.00 | 56 | 1024.2 |
| 20260509071311 | 70 | 89 | 1.0 | 2.0 | 0.00 | 0.00 | 0.00 | 53 | 1024.2 |
| 20260509070308 | 71 | 99 | 1.0 | 6.0 | 0.00 | 0.00 | 0.00 | 51 | 1024.1 |
| 20260509063307 | 73 | 134 | 3.0 | 12.0 | 0.00 | 0.00 | 0.00 | 50 | 1023.4 |
| 20260509061311 | 74 | 177 | 3.0 | 6.0 | 0.00 | 0.00 | 0.00 | 50 | 1023.3 |
| 20260509060308 | 74 | 68 | 3.0 | 6.0 | 0.00 | 0.00 | 0.00 | 49 | 1023.3 |
| 20260509055307 | 74 | 105 | 6.0 | 12.0 | 0.00 | 0.00 | 0.00 | 48 | 1023.1 |
| 20260509053308 | 75 | 103 | 1.0 | 8.0 | 0.00 | 0.00 | 0.00 | 47 | 1023.1 |
| 20260509052307 | 75 | 108 | 2.0 | 6.0 | 0.00 | 0.00 | 0.00 | 47 | 1022.9 |
| 20260509051306 | 75 | 160 | 1.0 | 4.0 | 0.00 | 0.00 | 0.00 | 48 | 1023.1 |
| 20260509050318 | 75 | 156 | 3.0 | 9.0 | 0.00 | 0.00 | 0.00 | 47 | 1023.2 |
| 20260509045307 | 75 | 156 | 7.0 | 14.0 | 0.00 | 0.00 | 0.00 | 47 | 1022.9 |
| 20260509044304 | 76 | 150 | 5.0 | 6.0 | 0.00 | 0.00 | 0.00 | 47 | 1023.0 |
| 20260509043306 | 75 | 156 | 1.0 | 5.0 | 0.00 | 0.00 | 0.00 | 49 | 1023.0 |
| 20260509042307 | 74 | 157 | 1.0 | 5.0 | 0.00 | 0.00 | 0.00 | 51 | 1023.2 |
| 20260509040305 | 74 | 150 | 4.0 | 6.0 | 0.00 | 0.00 | 0.00 | 51 | 1023.2 |
| 20260509034307 | 75 | 210 | 2.0 | 6.0 | 0.00 | 0.00 | 0.00 | 50 | 1023.2 |
| 20260509032307 | 76 | 274 | 2.0 | 6.0 | 0.00 | 0.00 | 0.00 | 49 | 1023.4 |
| 20260509031306 | 75 | 125 | 2.0 | 8.0 | 0.00 | 0.00 | 0.00 | 49 | 1023.4 |
| 20260509030305 | 75 | 79 | 3.0 | 6.0 | 0.00 | 0.00 | 0.00 | 49 | 1023.6 |
| 20260509025307 | 74 | 348 | 2.0 | 4.0 | 0.00 | 0.00 | 0.00 | 51 | 1023.7 |
| 20260509024303 | 74 | 122 | 2.0 | 8.0 | 0.00 | 0.00 | 0.00 | 51 | 1023.8 |
| 20260509023304 | 74 | 85 | 2.0 | 6.0 | 0.00 | 0.00 | 0.00 | 51 | 1023.9 |
| 20260509021303 | 73 | 9 | 3.0 | 8.0 | 0.00 | 0.00 | 0.00 | 52 | 1024.1 |
| 20260509020303 | 73 | 36 | 3.0 | 5.0 | 0.00 | 0.00 | 0.00 | 52 | 1024.6 |
| 20260509015306 | 73 | 180 | 2.0 | 6.0 | 0.00 | 0.00 | 0.00 | 52 | 1024.4 |
| 20260509014305 | 72 | 321 | 2.0 | 4.0 | 0.00 | 0.00 | 0.00 | 53 | 1024.7 |
| 20260509011303 | 69 | 331 | 0.0 | 4.0 | 0.00 | 0.00 | 0.00 | 57 | 1025.0 |
| 20260509010302 | 68 | 297 | 1.0 | 5.0 | 0.00 | 0.00 | 0.00 | 56 | 1025.3 |
| 20260509004304 | 68 | 255 | 2.0 | 4.0 | 0.00 | 0.00 | 0.00 | 56 | 1025.4 |
| 20260509003303 | 67 | 266 | 2.0 | 4.0 | 0.00 | 0.00 | 0.00 | 57 | 1025.4 |
| 20260509002306 | 66 | 273 | 1.0 | 5.0 | 0.00 | 0.00 | 0.00 | 57 | 1025.5 |
| 20260509001304 | 66 | 274 | 3.0 | 6.0 | 0.00 | 0.00 | 0.00 | 55 | 1025.5 |
| 20260509000304 | 66 | 183 | 2.0 | 6.0 | 0.00 | 0.00 | 0.00 | 56 | 1025.7 |
| 20260508235306 | 65 | 255 | 4.0 | 6.0 | 0.00 | 0.00 | 0.00 | 57 | 1025.5 |
| 20260508233303 | 62 | 253 | 2.0 | 5.0 | 0.00 | 0.00 | 0.00 | 60 | 1025.5 |
| 20260508231310 | 61 | 293 | 3.0 | 8.0 | 0.00 | 0.00 | 0.00 | 62 | 1025.5 |
| 20260508230305 | 60 | 248 | 1.0 | 8.0 | 0.00 | 0.00 | 0.00 | 64 | 1025.4 |
| 20260508225306 | 59 | 256 | 2.0 | 9.0 | 0.00 | 0.00 | 0.00 | 67 | 1025.0 |
| 20260508224302 | 57 | 258 | 4.0 | 6.0 | 0.00 | 0.00 | 0.00 | 68 | 1025.0 |